カタログに戻る

COSMOS 1867 COOLANT

運用中LEO
NORAD 39641·DEBRIS·🇷🇺 Russia

打ち上げ Jul 10, 1987 から Baikonur Cosmodrome

Loading…

次のパス (今後24時間)

TLE

最新Source: Space-Track

元期: Sep 14, 2026, 02:14 UTC

1 39641U 87060J   26257.09359191  .00000133  00000-0  83706-4 0  9998
2 39641  65.0050 121.9524 0018918 281.6312  78.2650 14.33791948649236

AllMySatでCOSMOS 1867 COOLANTをリアルタイム追跡

Download on the App Store